Location: Erlenbrunn
(49.1717°N, 7.6142°E)
Time: 10:11:27
(UTC+00:00)

Cosmos 1470 Rocket - Pass Details

Date: 25 November 2020
Orbit: 604 x 633 km, 82.5° (Epoch: 25 January)

Event Time Altitude Azimuth Distance (km) Brightness Sun altitude
Rises 17:00:24 0° 358° (N) 2,884 6.8 -13.1°
Reaches altitude 10° 17:02:55 10° 11° (N) 1,971 5.9 -13.5°
Maximum altitude 17:06:39 27° 70° (ENE) 1,167 4.4 -14.1°
Drops below altitude 10° 17:10:22 10° 130° (SE) 1,951 5.8 -14.7°
Sets 17:12:50 0° 142° (SE) 2,849 6.7 -15.1°
